Weather History for Ft Lauderdale, FL

Change the Weather History Date:

Thursday, January 17, 2013

  Actual Average Record
Temperature  
Mean Temperature 71 °F 69 °F  
Max Temperature 81 °F 76 °F 86 °F (1957)
Min Temperature 61 °F 61 °F 33 °F (1977)
Degree Days  
Heating Degree Days 0 1  
Month to date heating degree days 0 33  
Since 1 July heating degree days 22 65  
Cooling Degree Days 6 5  
Month to date cooling degree days 172 94  
Year to date cooling degree days 172 94  
Growing Degree Days 20 (Base 50)    
Moisture  
Dew Point 65 °F    
Average Humidity 83    
Maximum Humidity 97    
Minimum Humidity 69    
Precipitation  
Precipitation 0.04 in 0.08 in 0.75 in (1963)
Month to date precipitation 0.62 1.38  
Year to date precipitation 0.62 1.38  
Snow  
Snow 0.00 in - - ()
Month to date snowfall 0.0  
Since 1 July snowfall 0.0  
Snow Depth 0.00 in    
Sea Level Pressure  
Sea Level Pressure 30.05 in    
Wind  
Wind Speed 7 mph (WSW)    
Max Wind Speed 28 mph    
Max Gust Speed 33 mph    
Visibility 10 miles    
Events Rain    
T = Trace of Precipitation, MM = Missing Value Source: NWS Daily Summary

Daily Weather History Graph

Daily Weather History Graph

Search for Another Location

Airport:

Trip Planner

Search our weather history database for the weather conditions in past years. The results will help you decide how hot, cold, wet, or windy it might be!

Date:

Astronomy

Jan. 17, 2013 Rise Set
Actual Time 7:09 AM EST 5:52 PM EST
Civil Twilight 6:44 AM EST 6:17 PM EST
Nautical Twilight 6:16 AM EST 6:45 PM EST
Astronomical Twilight 5:48 AM EST 7:13 PM EST
Moon 10:57 AM EST (1/17) 11:56 PM EST (1/17)
Length of Visible Light 11h 32m
Length of Day
10h 43m
Waxing Crescent, 37% of the Moon is Illuminated
Jan 17
Waxing Crescent
Jan 18
First Quarter
Jan 26
Full
Feb 3
Last Quarter
Feb 10
New

Hourly Weather History & Observations

Time (EST) Temp. Dew Point Humidity Pressure Visibility Wind Dir Wind Speed Gust Speed Precip Events Conditions
12:53 AM 71.1 °F 69.1 °F 93% 30.04 in 10.0 mi East 3.5 mph - 0.00 in   Mostly Cloudy
1:21 AM 71.6 °F 68.0 °F 88% 30.04 in 10.0 mi East 4.6 mph - N/A   Mostly Cloudy
1:34 AM 71.6 °F 69.8 °F 94% 30.04 in 10.0 mi Calm Calm - N/A   Mostly Cloudy
1:53 AM 71.1 °F 68.0 °F 90% 30.04 in 10.0 mi Calm Calm - N/A   Partly Cloudy
2:53 AM 70.0 °F 68.0 °F 93% 30.03 in 10.0 mi WNW 4.6 mph - N/A   Scattered Clouds
3:53 AM 70.0 °F 68.0 °F 93% 30.03 in 10.0 mi Calm Calm - N/A   Partly Cloudy
4:53 AM 69.1 °F 68.0 °F 96% 30.03 in 10.0 mi North 3.5 mph - N/A   Partly Cloudy
5:53 AM 69.1 °F 66.9 °F 93% 30.04 in 10.0 mi Calm Calm - N/A   Partly Cloudy
6:30 AM 69.8 °F 68.0 °F 94% 30.04 in 10.0 mi Calm Calm - N/A   Mostly Cloudy
6:40 AM 69.8 °F 68.0 °F 94% 30.05 in 10.0 mi Calm Calm - N/A   Scattered Clouds
6:53 AM 69.1 °F 68.0 °F 96% 30.05 in 10.0 mi Calm Calm - N/A   Scattered Clouds
7:53 AM 69.1 °F 68.0 °F 96% 30.06 in 10.0 mi Calm Calm - N/A   Partly Cloudy
8:53 AM 72.0 °F 70.0 °F 93% 30.08 in 10.0 mi Calm Calm - N/A   Partly Cloudy
9:53 AM 77.0 °F 69.1 °F 76% 30.09 in 10.0 mi South 8.1 mph - N/A   Overcast
10:53 AM 79.0 °F 69.1 °F 72% 30.07 in 9.0 mi SSE 10.4 mph - N/A   Overcast
11:53 AM 79.0 °F 68.0 °F 69% 30.05 in 10.0 mi South 11.5 mph - N/A   Mostly Cloudy
12:45 PM 78.8 °F 69.8 °F 74% 30.02 in 10.0 mi South 10.4 mph 19.6 mph N/A   Mostly Cloudy
12:53 PM 77.0 °F 69.1 °F 76% 30.03 in 10.0 mi WSW 13.8 mph 20.7 mph N/A   Mostly Cloudy
1:05 PM 71.6 °F 68.0 °F 88% 30.02 in 2.5 mi WSW 13.8 mph 25.3 mph 0.03 in Rain Rain
1:18 PM 71.6 °F 69.8 °F 94% 30.02 in 5.0 mi WSW 10.4 mph 23.0 mph 0.04 in Rain Light Rain
1:53 PM 71.1 °F 69.1 °F 93% 30.00 in 7.0 mi SSW 12.7 mph 21.9 mph 0.04 in Rain Light Rain
2:53 PM 73.0 °F 68.0 °F 84% 29.99 in 10.0 mi SSW 8.1 mph - 0.00 in   Mostly Cloudy
3:53 PM 73.9 °F 69.1 °F 85% 29.99 in 10.0 mi South 5.8 mph - N/A   Mostly Cloudy
4:53 PM 75.9 °F 68.0 °F 76% 29.99 in 10.0 mi SW 5.8 mph - N/A   Mostly Cloudy
5:53 PM 75.0 °F 66.9 °F 76% 30.00 in 10.0 mi SW 5.8 mph - N/A   Partly Cloudy
6:53 PM 75.9 °F 64.9 °F 69% 30.03 in 10.0 mi West 10.4 mph - N/A   Mostly Cloudy
7:09 PM 71.6 °F 64.4 °F 78% 30.04 in 10.0 mi NNW 23.0 mph 31.1 mph N/A   Mostly Cloudy
7:53 PM 66.0 °F 59.0 °F 78% 30.07 in 10.0 mi NW 15.0 mph 26.5 mph N/A   Overcast
8:17 PM 64.4 °F 57.2 °F 77% 30.08 in 10.0 mi NW 16.1 mph 21.9 mph N/A   Scattered Clouds
8:53 PM 63.0 °F 55.9 °F 78% 30.09 in 10.0 mi NW 11.5 mph 19.6 mph N/A   Scattered Clouds
9:05 PM 62.6 °F 55.4 °F 77% 30.09 in 10.0 mi WNW 13.8 mph - N/A   Mostly Cloudy
9:53 PM 63.0 °F 54.0 °F 72% 30.10 in 10.0 mi NW 12.7 mph 20.7 mph N/A   Mostly Cloudy
10:13 PM 62.6 °F 55.4 °F 77% 30.10 in 10.0 mi NW 9.2 mph - N/A   Scattered Clouds
10:53 PM 62.1 °F 54.0 °F 75% 30.10 in 10.0 mi NW 9.2 mph - N/A   Partly Cloudy
11:53 PM 61.0 °F 51.1 °F 70% 30.10 in 10.0 mi NW 13.8 mph 18.4 mph N/A   Clear